Location: Corcelles
(46.1547°N, 4.7234°E)
Time: 20:33:38
(UTC+00:00)

ERS-2 - Pass Details

Date: 14 July 2020
Orbit: 494 x 498 km, 98.5° (Epoch: 14 August)

Event Time Altitude Azimuth Distance (km) Brightness Sun altitude
Rises 02:28:55 0° 144° (SE) 2,570 5.6 -13.0°
Reaches altitude 10° 02:31:06 10° 135° (SE) 1,692 4.7 -12.7°
Maximum altitude 02:34:25 34° 69° (ENE) 830 3.8 -12.4°
Drops below altitude 10° 02:37:45 10° 3° (N) 1,703 5.7 -12.0°
Sets 02:39:57 0° 354° (N) 2,591 6.5 -11.7°
